Location: Betra
(48.4113°N, 8.6634°E)
Time: 23:58:56
(UTC+00:00)

Aureole 3 - Pass Details

Date: 08 August 2024
Orbit: 375 x 1118 km, 82.5° (Epoch: 10 September)

Event Time Altitude Azimuth Distance (km) Brightness Sun altitude
Rises 00:14:57 0° 5° (N) 2,812 8.3 -24.8°
Reaches altitude 10° 00:18:30 10° 35° (NE) 1,736 6.7 -24.7°
Maximum altitude 00:20:06 12° 60° (ENE) 1,524 6.1 -24.6°
Drops below altitude 10° 00:21:36 10° 86° (E) 1,600 5.9 -24.6°
Enters shadow 00:21:49 - 90° (E) 1,633 5.9 -24.6°
